EN

Hourly Weather Amfreville

Today, 22 January, Friday

Time Temperature Precipitation Wind Pressure Humidity
00:00 +4°C° 0.1 mm 3 mps 741 mmHg 87%
01:00 +4°C° 0 mm 3 mps 741 mmHg 89%
02:00 +3°C° 0 mm 3 mps 742 mmHg 91%
03:00 +3°C° 0 mm 4 mps 742 mmHg 92%
04:00 +3°C° 0 mm 3 mps 742 mmHg 91%
05:00 +3°C° 0 mm 3 mps 743 mmHg 90%
06:00 +3°C° 0 mm 2 mps 743 mmHg 89%
07:00 +4°C° 0 mm 2 mps 743 mmHg 89%
08:00 +4°C° 0 mm 2 mps 744 mmHg 88%
09:00 +5°C° 0 mm 2 mps 744 mmHg 87%
10:00 +5°C° 0 mm 3 mps 745 mmHg 84%
11:00 +5°C° 0 mm 3 mps 745 mmHg 81%
12:00 +7°C° 0 mm 3 mps 745 mmHg 78%
13:00 +7°C° 0.1 mm 3 mps 745 mmHg 78%
14:00 +7°C° 0.1 mm 3 mps 745 mmHg 79%
15:00 +7°C° 0.1 mm 3 mps 745 mmHg 80%
16:00 +5°C° 0.1 mm 4 mps 745 mmHg 83%
17:00 +4°C° 0.1 mm 4 mps 745 mmHg 86%
18:00 +3°C° 0.1 mm 5 mps 745 mmHg 88%
19:00 +3°C° 0.1 mm 5 mps 745 mmHg 88%
20:00 +3°C° 0.1 mm 6 mps 745 mmHg 87%
21:00 +3°C° 0.1 mm 7 mps 745 mmHg 87%
22:00 +3°C° 0 mm 7 mps 745 mmHg 87%
23:00 +2°C° 0 mm 7 mps 745 mmHg 87%

Tomorrow, 23 January, Saturday

Time Temperature Precipitation Wind Pressure Humidity
00:00 +1°C° 0 mm 8 mps 745 mmHg 86%
01:00 +2°C° 0.1 mm 6 mps 745 mmHg 88%
02:00 +1°C° 0.1 mm 5 mps 745 mmHg 90%
03:00 +1°C° 0.1 mm 4 mps 745 mmHg 92%
04:00 +2°C° 0 mm 3 mps 745 mmHg 92%
05:00 +1°C° 0 mm 3 mps 745 mmHg 92%
06:00 +2°C° 0 mm 2 mps 745 mmHg 93%
07:00 +3°C° 0.2 mm 2 mps 745 mmHg 92%
08:00 +3°C° 0.2 mm 2 mps 745 mmHg 91%
09:00 +4°C° 0.2 mm 2 mps 746 mmHg 90%
10:00 +3°C° 0.5 mm 3 mps 746 mmHg 87%
11:00 +4°C° 0.5 mm 3 mps 747 mmHg 84%
12:00 +4°C° 0.5 mm 4 mps 747 mmHg 80%
13:00 +4°C° 0.3 mm 4 mps 747 mmHg 80%
14:00 +4°C° 0.3 mm 4 mps 747 mmHg 79%
15:00 +3°C° 0.3 mm 5 mps 747 mmHg 78%
16:00 +3°C° 0.1 mm 4 mps 748 mmHg 81%
17:00 +1°C° 0.1 mm 4 mps 748 mmHg 84%
18:00 +1°C° 0.1 mm 3 mps 748 mmHg 86%
19:00 +1°C° 0 mm 3 mps 749 mmHg 86%
20:00 0°C° 0 mm 3 mps 749 mmHg 86%
21:00 0°C° 0 mm 3 mps 749 mmHg 86%
22:00 0°C° 0 mm 3 mps 749 mmHg 86%
23:00 +1°C° 0 mm 2 mps 749 mmHg 85%

Day after tomorrow, 24 January, Sunday

Time Temperature Precipitation Wind Pressure Humidity
00:00 +1°C° 0 mm 2 mps 749 mmHg 85%
01:00 0°C° 0.1 mm 3 mps 749 mmHg 87%
02:00 0°C° 0.1 mm 3 mps 748 mmHg 88%
03:00 0°C° 0.1 mm 4 mps 748 mmHg 90%
04:00 0°C° 1.1 mm 4 mps 748 mmHg 92%
05:00 0°C° 1.1 mm 5 mps 748 mmHg 93%
06:00 -1°C° 1.1 mm 6 mps 747 mmHg 95%
07:00 -1°C° 0 mm 6 mps 747 mmHg 93%
08:00 -1°C° 0 mm 7 mps 747 mmHg 91%
09:00 0°C° 0 mm 7 mps 747 mmHg 89%
10:00 0°C° 0 mm 7 mps 747 mmHg 87%
11:00 +2°C° 0 mm 7 mps 747 mmHg 85%
12:00 +2°C° 0 mm 7 mps 747 mmHg 83%
13:00 +2°C° 0.3 mm 7 mps 747 mmHg 84%
14:00 +2°C° 0.3 mm 7 mps 748 mmHg 84%
15:00 +2°C° 0.3 mm 6 mps 748 mmHg 85%
16:00 0°C° 0.4 mm 7 mps 749 mmHg 83%
17:00 0°C° 0.4 mm 7 mps 750 mmHg 81%
18:00 -1°C° 0.4 mm 7 mps 751 mmHg 80%
19:00 -1°C° 0.1 mm 7 mps 751 mmHg 80%
20:00 -1°C° 0.1 mm 6 mps 752 mmHg 80%
21:00 -1°C° 0.1 mm 6 mps 753 mmHg 80%
22:00 -1°C° 0.1 mm 6 mps 754 mmHg 82%
23:00 -1°C° 0.1 mm 5 mps 754 mmHg 83%

25 January, Monday

Time Temperature Precipitation Wind Pressure Humidity
00:00 -1°C° 0.1 mm 5 mps 755 mmHg 85%
01:00 0°C° 0.1 mm 5 mps 755 mmHg 84%
02:00 -1°C° 0.1 mm 6 mps 755 mmHg 83%
03:00 -1°C° 0.1 mm 6 mps 755 mmHg 82%
04:00 -1°C° 0.1 mm 7 mps 755 mmHg 82%
05:00 -1°C° 0.1 mm 7 mps 756 mmHg 82%
06:00 -1°C° 0.1 mm 7 mps 756 mmHg 81%
07:00 0°C° 0 mm 7 mps 756 mmHg 82%
08:00 0°C° 0 mm 7 mps 757 mmHg 82%
09:00 0°C° 0 mm 7 mps 757 mmHg 83%
10:00 +2°C° 0.1 mm 6 mps 757 mmHg 80%
11:00 +3°C° 0.1 mm 6 mps 758 mmHg 78%
12:00 +4°C° 0.1 mm 6 mps 758 mmHg 75%
13:00 +5°C° 0.1 mm 5 mps 758 mmHg 77%
14:00 +5°C° 0.1 mm 5 mps 758 mmHg 78%
15:00 +5°C° 0.1 mm 4 mps 758 mmHg 79%
16:00 +4°C° 0.1 mm 4 mps 759 mmHg 82%
17:00 +3°C° 0.1 mm 4 mps 759 mmHg 84%
18:00 +1°C° 0.1 mm 4 mps 760 mmHg 86%
19:00 0°C° 0.1 mm 4 mps 760 mmHg 87%
20:00 0°C° 0.1 mm 4 mps 761 mmHg 88%
21:00 +1°C° 0.1 mm 3 mps 761 mmHg 89%
22:00 +1°C° 0 mm 3 mps 761 mmHg 89%
23:00 +1°C° 0 mm 3 mps 761 mmHg 90%

26 January, Tuesday

Time Temperature Precipitation Wind Pressure Humidity
00:00 +1°C° 0 mm 3 mps 761 mmHg 90%
01:00 +1°C° 0 mm 3 mps 761 mmHg 90%
02:00 +2°C° 0 mm 3 mps 761 mmHg 90%
03:00 +2°C° 0 mm 3 mps 761 mmHg 90%
04:00 +2°C° 0 mm 3 mps 761 mmHg 91%
05:00 +2°C° 0 mm 3 mps 761 mmHg 92%
06:00 +3°C° 0 mm 4 mps 761 mmHg 94%
07:00 +3°C° 0 mm 4 mps 761 mmHg 93%
08:00 +2°C° 0 mm 5 mps 761 mmHg 92%
09:00 +2°C° 0 mm 5 mps 761 mmHg 90%
10:00 +3°C° 0.1 mm 6 mps 760 mmHg 89%
11:00 +4°C° 0.1 mm 7 mps 760 mmHg 88%
12:00 +5°C° 0.1 mm 8 mps 759 mmHg 87%
13:00 +5°C° 0.5 mm 8 mps 759 mmHg 88%
14:00 +5°C° 0.5 mm 8 mps 758 mmHg 90%
15:00 +5°C° 0.5 mm 9 mps 757 mmHg 91%
16:00 +6°C° 0.2 mm 9 mps 757 mmHg 92%
17:00 +7°C° 0.2 mm 8 mps 757 mmHg 92%
18:00 +9°C° 0.2 mm 8 mps 757 mmHg 93%
19:00 +8°C° 0 mm 7 mps 758 mmHg 93%
20:00 +8°C° 0 mm 7 mps 758 mmHg 93%
21:00 +8°C° 0 mm 6 mps 759 mmHg 92%
22:00 +8°C° 0 mm 6 mps 759 mmHg 93%
23:00 +7°C° 0 mm 6 mps 760 mmHg 94%

27 January, Wednesday

Time Temperature Precipitation Wind Pressure Humidity
00:00 +7°C° 0 mm 6 mps 760 mmHg 94%
01:00 +7°C° 0 mm 6 mps 761 mmHg 95%
02:00 +7°C° 0 mm 6 mps 761 mmHg 95%
03:00 +7°C° 0 mm 5 mps 761 mmHg 95%
04:00 +7°C° 0 mm 5 mps 761 mmHg 96%
05:00 +7°C° 0 mm 5 mps 762 mmHg 96%
06:00 +6°C° 0 mm 4 mps 762 mmHg 97%
07:00 +7°C° 0 mm 5 mps 762 mmHg 96%
08:00 +7°C° 0 mm 5 mps 763 mmHg 96%
09:00 +8°C° 0 mm 5 mps 763 mmHg 96%
10:00 +8°C° 0 mm 5 mps 763 mmHg 93%
11:00 +9°C° 0 mm 6 mps 763 mmHg 90%
12:00 +10°C° 0 mm 6 mps 763 mmHg 86%
13:00 +10°C° 0 mm 5 mps 762 mmHg 86%
14:00 +10°C° 0 mm 5 mps 762 mmHg 85%
15:00 +10°C° 0 mm 5 mps 761 mmHg 85%
16:00 +10°C° 0.1 mm 6 mps 761 mmHg 86%
17:00 +9°C° 0.1 mm 6 mps 760 mmHg 88%
18:00 +9°C° 0.1 mm 7 mps 760 mmHg 90%
19:00 +9°C° 0.9 mm 8 mps 759 mmHg 90%
20:00 +10°C° 0.9 mm 9 mps 758 mmHg 91%
21:00 +10°C° 0.9 mm 9 mps 757 mmHg 92%
22:00 +9°C° 0.7 mm 10 mps 757 mmHg 90%
23:00 +11°C° 0.7 mm 10 mps 756 mmHg 89%
Show more